This demonstration page uses our WeatherBlox Daily Observations layout. Learn more.

Left ArrowRight Arrow

Hourly Observations for February 10, 2020

Temp ( °F °C ) Dew Point ( °F °C ) Humidity (%) Winds ( mph kmh ) Pressure ( in mb ) Visibility ( mi km ) Precip ( " mm )
12:59 am 00:59 Mostly Cloudy 43 6.1 36 2.2 76 76 SSW 8 13 30.43 1031 10 16 0.00 0.00
1:59 am 01:59 Partly Cloudy 43 6.1 35 1.7 74 74 SSW 8 13 30.42 1030 10 16 0.00 0.00
2:59 am 02:59 Mostly Cloudy 43 6.1 36 2.2 76 76 S 12 19 30.39 1029 10 16 0.00 0.00
3:59 am 03:59 Mostly Cloudy 42 5.6 36 2.2 79 79 SSW 9 15 30.36 1028 10 16 0.00 0.00
4:59 am 04:59 Mostly Cloudy 42 5.6 34 1.1 73 73 SSW 8 13 30.35 1028 10 16 0.00 0.00
5:59 am 05:59 Mostly Cloudy 43 6.1 33 0.6 68 68 SW 8 13 30.36 1028 10 16 0.00 0.00
6:59 am 06:59 Partly Cloudy 41 5 34 1.1 76 76 SSW 7 11 30.37 1028 10 16 0.00 0.00
7:59 am 07:59 Partly Cloudy 44 6.7 35 1.7 71 71 SSW 9 15 30.37 1028 N/A 0.00 0.00
8:59 am 08:59 Mostly Cloudy 47 8.3 36 2.2 66 66 SW 7 11 30.36 1028 10 16 0.00 0.00
9:59 am 09:59 Mostly Cloudy 52 11.1 38 3.3 59 59 SW 12 19 30.34 1027 10 16 0.00 0.00
10:59 am 10:59 Mostly Cloudy 57 13.9 41 5 55 55 SSW 13 20 30.31 1027 10 16 0.00 0.00
11:59 am 11:59 Mostly Cloudy 60 15.6 43 6.1 53 53 SW 15 24 30.28 1025 10 16 0.00 0.00
12:59 pm 12:59 Cloudy 61 16.1 45 7.2 56 56 SSW 14 22 30.25 1024 10 16 0.00 0.00
1:59 pm 13:59 Cloudy 64 17.8 48 8.9 56 56 SW 14 22 30.23 1024 10 16 0.00 0.00
2:59 pm 14:59 Cloudy 65 18.3 50 10 59 59 SW 17 28 30.21 1023 10 16 0.00 0.00
3:59 pm 15:59 Cloudy 65 18.3 50 10 59 59 SW 13 20 30.22 1023 10 16 0.00 0.00
4:59 pm 16:59 Cloudy 64 17.8 50 10 60 60 SW 9 15 30.22 1023 10 16 0.00 0.00
5:59 pm 17:59 Cloudy 63 17.2 50 10 63 63 S 5 7 30.21 1023 10 16 0.00 0.00
6:59 pm 18:59 Cloudy 63 17.2 51 10.6 65 65 S 6 9 30.22 1023 10 16 0.00 0.00
7:59 pm 19:59 Cloudy 63 17.2 51 10.6 65 65 S 7 11 30.20 1023 10 16 0.00 0.00
8:59 pm 20:59 Cloudy 63 17.2 52 11.1 68 68 S 13 20 30.19 1022 10 16 0.00 0.00
9:59 pm 21:59 Cloudy 63 17.2 53 11.7 70 70 S 10 17 30.17 1022 10 16 0.00 0.00
10:59 pm 22:59 Cloudy 63 17.2 54 12.2 73 73 S 8 13 30.16 1021 10 16 0.00 0.00
11:59 pm 23:59 Cloudy 63 17.2 54 12.2 73 73 S 12 19 30.14 1021 10 16 0.00 0.00

Powered by AerisWeather